千帆星座-164(QIANFAN-164)

导读

QIANFAN-164(NORAD编号69326)是中国千帆星座部署的低轨互联网卫星,由上海垣信卫星科技有限公司负责运营,上海微小卫星工程中心参与研制。该卫星于2026年6月1日随长征十二号乙运载火箭发射入轨,标志着千帆星座组网完成阶段性目标,星座规模扩充至164颗。作为我国自主可控低轨卫星互联网系统组成部分,QIANFAN-164旨在填补全球互联网覆盖空白,重点面向“一带一路”及出海企业需求,提供高速低延迟的空天地海一体化通信服务,助力2026年千帆星座实现全球初步覆盖目标。

基本信息
目录编号:
69326
目录名称:
QIANFAN-164
国际标识:
2026-121B
轨道中心:
EARTH
卫星名称:
千帆星座-164
卫星全名:
千帆星座-164(QIANFAN-164)
卫星状态:
在轨 (已飞行102 天)
发射日期:
2026-06-01 UTC
国别 :
中国 (CN)
星等 :
--
该卫星已列入 空间交会检测服务 Space Conjunction Data Service (SCDS) ,当前飞行风险评估等级: 无高风险
轨道信息
数据来源 国际轨道数据 AOE轨道数据
星历时间 2026-09-11T10:40:53+0800
10小时前
查看轨道信息
2026-09-10T23:00:00+0800
22小时前
查看轨道信息
半长轴 7446.642km 7446.644km
偏心率 0.0001869 0.0001844
轨道倾角 89.011° 89.013°
近地点辐角 111.022° 108.817°
升交点赤经 291.954° 292.004°
平近点角 249.113° 45.438°
近地点 1067.113km 1067.133km
远地点 1069.897km 1069.881km
周期 106.586分钟 106.586分钟
每日圈数 13.51021 13.510205
详细信息
卫星平台:
164
覆盖范围:
全球
运营商:
上海垣信卫星科技有限公司
运营商所在国:
中国
使用方式:
暂无
卫星简介
千帆星座,也被称为“G60星链”计划,是中国版“星链”的重要组成部分,旨在打造一个由1.4万多颗低轨宽频多媒体卫星构成的庞大星座。千帆星座计划由上海垣信卫星科技有限公司负责实施,于2023年启动建设。该项目是我国第二个低轨卫星大星座,旨在通过构建庞大的卫星网络,为全球用户提供高质量的通信和宽带互联网服务。
2D轨道图
3D轨道图
轨道高度分析图
轨道倾角分析图
轨道综合分析图
查看轨道综合分析图
交会数据列表
事件ID 空间交会对象 最接近时刻(TCA) 交会距离 交会风险概率(CRP) 交会风险指数(CRI) 操作
CDM_260911-200404-100606-932622
2026-09-11T
20:04:33+0000
2.655 km
极远距离
1.177959E-6 低风险 0.36
与全量物体交会距离演化趋势
与全量物体交会风险概率演化趋势